Location: Melbourne
(37.8666°S, 145.1333°E)
Time: 04:31:54
(UTC+11:00)

Iridium 21 - Visible Passes

Search period start: 23 February 2017 00:00
Search period end: 05 March 2017 00:00
Orbit: 776 x 779 km, 86.4° (Epoch: 21 February)

Date Brightness Start Highest point End Pass type
(mag) Time Alt. Az. Time Alt. Az. Time Alt. Az.
23 Feb 5.7 21:25:23 10° N 21:30:37 76° W 21:35:56 10° S visible
24 Feb 5.6 20:52:01 10° NNE 20:57:08 57° E 21:02:20 10° S visible
24 Feb 8.4 22:35:18 10° WNW 22:38:15 15° WSW 22:41:15 10° SW visible
25 Feb 7.6 22:00:00 10° NW 22:04:26 28° W 22:08:56 10° SSW visible
26 Feb 6.4 21:25:39 10° NNW 21:30:44 51° W 21:35:55 10° S visible
27 Feb 5.5 20:51:57 10° N 20:57:12 84° E 21:02:31 10° S visible
28 Feb 5.9 20:18:49 10° NNE 20:23:46 44° E 20:28:47 10° SSE visible
28 Feb 8.2 22:00:59 10° WNW 22:04:41 19° WSW 22:08:26 10° SSW visible
01 Mar 7.2 21:26:10 10° NNW 21:30:56 35° W 21:35:46 10° SSW visible
02 Mar 6.0 20:52:06 10° N 20:57:18 67° W 21:02:35 10° S visible
03 Mar 5.6 20:18:36 10° N 20:23:48 66° E 20:29:03 10° S visible
03 Mar 8.6 22:02:36 10° WNW 22:05:01 13° WSW 22:07:26 10° SW visible
04 Mar 7.9 21:26:56 10° NW 21:31:10 24° W 21:35:27 10° SSW visible
